Wind_Speed
3 2 2 2 1 1 2 4 5 4 3 3 5 6 7 8 8 8 10 12 13 14 14 15 16 18 19 21 22 24 26 27 29 30 32 33 34 34 34 35 36 38 40 43 46 49 50 51 51
6 6 7 7 5 5 5 4 4 5 7 8 9 9 10 11 13 12 13 14 14 15 17 19 21 23 25 27 29 31 33 34 36 37 39 40 41 41 41 41 41 41 41 42 44 46 49 52 54
13 13 12 11 11 11 10 10 10 10 10 11 11 11 11 11 12 12 13 14 16 18 21 23 25 27 30 32 34 36 38 40 42 44 45 47 48 49 49 49 49 49 48 47 47 47 48 50 52
16 15 15 14 13 13 13 13 13 13 13 12 10 9 10 11 12 13 15 17 19 22 24 27 30 32 34 37 39 41 43 46 48 49 51 52 54 55 56 56 56 56 56 55 54 53 52 51 52
16 16 15 15 15 16 16 16 15 13 11 9 9 9 10 13 14 16 19 21 24 26 29 32 34 37 39 42 44 47 49 51 54 56 58 59 61 62 63 63 63 63 62 61 60 60 59 58 56
17 17 18 18 18 16 15 12 11 9 8 8 9 11 12 16 18 20 23 26 28 31 33 35 38 41 43 46 49 52 54 57 60 63 66 68 70 71 71 71 71 70 69 68 67 65 64 63 62
19 18 18 17 14 12 11 9 8 7 7 9 11 13 16 19 22 25 27 29 31 33 36 38 41 44 46 50 53 57 60 63 67 70 72 74 76 77 78 78 78 77 77 75 74 72 70 69 67
16 15 14 12 10 9 8 7 7 8 9 11 14 17 20 23 26 27 29 31 34 37 39 42 44 47 51 54 58 61 65 68 71 74 76 78 80 81 82 83 84 84 83 82 81 79 77 75 73
11 10 9 7 6 6 7 7 9 11 12 15 18 21 23 25 27 29 31 34 37 40 43 46 49 52 55 58 62 65 69 72 74 77 79 81 83 85 86 88 89 90 90 89 89 87 85 82 80
6 6 6 5 5 7 9 10 12 14 16 19 22 24 25 27 29 32 35 37 40 43 46 49 51 54 58 62 65 69 72 75 78 81 84 86 88 90 92 94 95 97 97 97 97 96 94 92 88
4 5 7 8 9 10 12 13 15 17 19 22 24 25 27 29 32 35 38 40 43 46 49 52 54 57 61 65 68 72 75 78 81 84 87 90 92 95 96 97 96 96 96 96 97 98 98 98 97
7 9 10 12 13 14 15 16 18 19 21 23 25 27 30 32 35 38 41 43 46 49 52 54 57 61 65 68 72 75 79 82 86 89 92 94 95 95 93 91 88 86 85 85 86 89 91 94 97
10 11 13 15 15 16 17 18 19 21 23 25 27 29 32 35 37 40 42 44 47 50 54 57 61 65 69 73 77 81 85 88 91 94 95 94 92 88 84 81 79 78 77 77 77 78 79 82 87
14 15 15 16 16 16 17 18 20 21 24 26 29 31 34 36 39 41 44 46 50 54 57 61 65 69 73 77 81 86 89 91 93 94 93 89 85 81 78 76 75 74 72 72 71 72 73 74 77
15 16 16 16 16 16 17 18 20 22 24 27 30 32 35 38 41 44 47 50 54 57 61 65 69 73 77 81 85 88 91 93 93 91 87 83 80 78 76 73 70 68 66 64 63 63 65 68 71
15 15 16 16 17 17 17 18 20 22 24 27 30 33 36 40 44 47 50 53 56 60 64 68 72 75 79 83 87 90 92 92 90 86 83 80 78 75 71 67 63 59 56 53 52 53 55 58 63
14 15 16 17 18 18 18 19 21 22 25 28 31 34 39 43 47 50 53 55 58 62 66 71 74 78 82 85 88 91 91 89 85 82 80 78 75 71 65 60 56 52 50 49 48 47 48 50 54
16 17 17 18 18 18 19 21 22 23 26 29 33 37 41 46 49 52 55 57 61 65 69 73 76 80 83 86 88 90 88 85 82 80 79 76 72 66 60 56 53 52 51 50 50 49 48 48 48
16 17 17 17 17 18 19 22 24 25 29 32 35 40 44 48 51 54 56 59 63 67 71 74 77 81 83 86 88 88 85 81 80 79 77 73 69 63 59 56 54 55 55 55 55 54 51 50 49
15 16 16 17 18 19 21 23 26 28 31 35 38 43 47 50 53 55 57 61 65 69 72 75 78 81 84 87 89 87 82 79 78 76 74 70 65 62 59 58 58 59 60 60 61 60 57 54 53
14 15 18 19 20 22 23 23 28 31 34 38 42 45 48 51 53 55 58 63 67 70 73 76 79 83 86 88 88 83 80 78 77 74 70 66 62 61 61 62 63 65 66 66 65 64 62 58 56
15 17 20 22 23 24 27 26 30 33 37 40 43 46 48 51 53 56 60 64 68 71 74 76 80 84 87 88 85 82 79 77 76 73 68 64 62 62 64 67 69 71 72 72 70 68 65 62 57
17 20 22 24 25 26 29 30 32 36 39 41 44 46 48 51 54 56 61 65 69 72 74 77 81 85 86 86 83 80 79 78 75 71 66 62 62 65 69 72 75 76 76 74 72 69 67 63 59
20 22 23 24 26 28 30 32 35 37 38 40 43 46 49 52 54 57 62 66 69 72 75 78 82 84 85 84 81 79 78 76 74 69 65 64 65 69 73 75 74 71 67 64 62 61 60 59 56
23 25 26 27 28 29 31 32 34 35 37 40 44 47 50 52 54 58 62 67 70 73 75 78 81 83 84 82 79 78 77 75 73 70 67 67 70 74 76 73 68 62 55 50 46 45 46 49 50
23 26 29 31 31 30 30 31 32 35 38 42 45 47 50 52 55 59 63 67 70 73 75 78 81 83 82 80 77 76 75 74 72 70 70 72 76 78 76 71 64 55 48 40 33 28 29 34 39
24 27 29 32 33 32 32 33 34 38 40 43 46 48 50 52 55 59 63 68 71 73 75 78 81 82 80 78 76 74 73 72 71 70 71 74 78 79 75 67 57 48 42 35 27 18 14 20 27
25 29 31 34 37 38 36 37 39 40 42 44 46 48 51 52 55 59 64 68 71 73 75 78 80 80 79 76 74 72 72 71 71 70 72 75 78 77 71 61 50 43 39 33 26 18 8 6 15
26 29 31 33 36 39 40 40 42 42 44 45 47 49 51 53 55 59 64 68 71 73 75 78 79 79 77 74 72 71 70 70 70 71 72 75 77 75 68 56 46 40 36 32 27 22 13 4 6
26 29 32 34 36 38 41 43 45 46 46 47 48 50 52 53 56 60 64 68 70 72 74 77 78 77 75 72 70 69 69 69 69 70 72 75 76 74 66 52 42 37 33 29 24 21 15 7 0
Wind_Direction
117 130 133 101 131 299 306 295 303 308 337 26 36 36 30 26 21 13 12 11 4 357 350 342 335 329 323 318 314 310 306 303 300 298 295 293 290 287 284 281 277 274 270 267 264 261 260 258 257
65 68 66 64 61 62 65 53 50 62 64 55 48 42 38 37 33 25 17 8 356 346 337 330 325 320 315 312 309 307 304 302 300 297 295 292 290 288 285 283 280 278 275 272 268 265 261 258 256
77 77 72 75 75 79 80 76 73 68 64 62 59 54 46 37 25 10 358 347 337 329 324 319 316 313 311 309 307 306 304 302 299 297 295 292 290 288 286 283 281 278 276 273 270 268 265 262 258
79 79 76 75 77 76 76 75 75 77 74 66 55 41 26 11 359 348 338 330 324 319 316 314 313 313 312 311 309 307 305 303 301 299 296 294 291 289 286 284 281 278 276 273 271 269 266 264 261
79 78 78 78 80 82 84 83 81 76 64 47 26 9 359 349 341 332 325 321 318 317 317 317 317 316 315 313 312 310 308 306 304 301 299 296 294 291 288 285 282 280 277 274 271 269 266 264 261
87 86 89 90 90 88 85 78 72 61 43 20 -0 347 339 333 329 325 322 320 320 320 320 320 319 318 317 315 313 311 309 308 305 303 301 299 296 294 291 288 285 281 278 275 272 269 266 264 261
94 90 89 87 86 81 73 61 49 28 6 348 338 331 327 325 326 325 323 323 323 323 322 321 320 319 317 316 314 313 311 309 307 305 302 300 297 294 291 289 285 282 279 276 273 270 266 263 261
87 87 84 80 73 64 48 32 11 352 336 327 324 323 324 325 325 325 325 325 325 324 322 321 320 319 318 317 315 313 312 310 308 305 303 300 297 294 291 288 285 282 279 276 273 270 267 264 260
78 76 75 63 43 20 2 345 335 328 324 321 321 323 325 326 326 327 327 326 325 323 323 322 321 320 318 316 315 313 311 309 307 304 302 299 296 293 290 288 285 281 278 275 272 268 265 263 260
70 52 42 19 354 335 328 324 323 322 321 321 323 325 327 328 328 328 327 326 325 324 322 320 318 317 316 315 314 312 310 308 306 304 301 299 296 293 290 288 285 282 279 276 273 270 266 263 260
14 357 346 336 329 325 322 321 321 321 321 323 325 326 327 328 328 328 328 327 325 323 320 318 317 316 316 314 313 311 310 309 308 306 304 301 298 295 292 290 287 284 281 278 275 272 268 264 261
334 330 327 324 323 321 320 320 320 321 323 325 327 327 328 329 330 330 328 326 324 321 319 318 318 317 316 315 314 314 313 312 311 309 306 303 300 298 295 293 290 286 283 279 275 272 269 265 262
317 317 317 317 318 319 320 321 322 323 326 326 327 328 329 330 330 328 326 324 322 321 321 321 320 319 318 318 317 317 316 315 314 311 308 306 303 300 297 295 292 289 285 280 275 271 267 264 261
315 316 316 317 318 320 322 323 323 325 325 325 326 328 329 329 328 326 325 324 324 324 324 323 322 321 321 320 320 319 318 317 315 312 310 308 306 304 302 299 297 293 290 285 279 273 267 262 258
317 318 317 319 321 323 324 323 324 325 324 324 326 327 327 327 327 327 327 326 326 326 326 325 324 323 323 323 322 321 319 318 316 314 312 311 309 308 306 303 300 297 293 289 284 278 271 264 257
321 321 322 325 325 324 324 323 325 324 322 323 324 324 325 326 327 327 327 327 327 327 327 327 326 326 326 325 324 322 320 319 318 316 315 314 312 310 308 305 302 299 295 292 288 283 276 268 259
326 326 327 327 325 322 322 322 322 321 320 320 321 322 323 325 327 327 328 328 329 329 329 328 328 328 327 326 324 323 322 321 320 319 317 316 314 311 308 305 302 299 296 294 291 288 283 275 265
330 330 329 325 319 317 318 318 318 319 318 319 320 322 323 325 327 329 330 330 331 331 330 329 330 329 328 326 325 324 323 323 322 320 319 317 315 311 308 304 301 298 296 294 292 290 287 282 274
330 327 323 317 313 313 316 317 317 318 317 318 320 322 323 325 328 330 332 333 333 332 331 331 331 329 327 326 325 325 325 324 323 322 321 318 315 311 307 303 300 297 295 292 290 288 285 283 279
326 320 317 314 313 315 318 319 318 318 318 320 321 322 324 327 330 333 334 334 334 333 333 332 331 329 328 328 327 327 327 326 326 324 323 319 315 311 307 303 299 296 293 290 287 284 282 279 277
326 322 321 321 321 320 321 322 318 319 320 322 323 324 327 330 333 335 335 336 335 334 334 332 331 330 330 329 329 329 329 328 327 326 324 320 315 311 307 304 300 297 293 289 285 281 278 275 272
334 332 330 328 327 326 325 325 320 322 323 324 326 328 330 333 335 336 336 337 336 335 334 333 332 332 331 331 331 331 331 330 329 328 326 322 318 315 311 307 303 298 293 288 283 278 274 271 267
340 337 334 331 330 328 324 325 325 326 327 328 329 331 334 335 336 337 337 338 337 336 335 335 334 333 332 332 333 333 333 333 332 331 329 325 322 318 315 311 306 301 295 289 283 276 271 267 263
343 340 336 333 333 332 332 332 329 330 331 331 333 336 337 336 336 337 338 338 338 337 337 336 335 334 334 334 335 335 335 335 335 333 331 329 326 324 320 317 313 308 302 294 285 276 268 262 258
348 346 344 344 344 342 339 337 333 335 336 336 338 339 337 336 336 338 339 339 338 338 338 337 336 336 336 336 337 337 338 338 337 336 335 334 333 330 328 326 324 321 315 307 294 279 266 257 251
357 354 352 350 350 350 346 342 340 342 342 341 341 339 337 336 337 339 340 340 340 340 339 339 338 337 338 338 339 339 340 340 340 340 340 339 339 338 337 336 335 335 333 327 316 292 267 250 243
6 3 359 354 353 354 354 347 348 348 346 344 342 340 338 337 338 339 340 341 341 341 340 340 339 339 340 340 341 342 343 343 344 344 344 344 344 343 343 342 344 347 349 348 344 327 281 247 236
12 9 6 2 358 357 359 352 353 349 347 346 344 342 339 338 338 340 342 342 342 342 342 341 341 341 342 343 343 345 346 347 347 348 348 349 349 348 347 347 350 356 1 8 12 13 360 248 228
16 13 10 8 4 360 0 356 354 351 348 347 345 343 340 339 339 342 343 343 343 343 343 343 343 343 344 345 345 347 348 350 351 351 352 353 353 352 351 351 353 360 8 17 24 30 37 46 221
17 15 12 11 9 4 2 358 356 354 351 348 346 344 342 341 342 343 344 344 345 345 345 344 344 345 346 347 348 349 351 353 354 355 356 357 357 357 356 354 354 0 9 18 24 29 36 44 188
Height
5864 5865 5867 5868 5869 5868 5868 5870 5870 5871 5872 5872 5871 5871 5871 5870 5870 5872 5870 5867 5866 5865 5864 5863 5862 5861 5859 5858 5856 5855 5853 5851 5849 5847 5845 5843 5841 5840 5838 5837 5835 5834 5834 5833 5833 5834 5834 5835 5835
5865 5867 5869 5869 5869 5869 5870 5870 5871 5872 5873 5872 5872 5871 5871 5870 5869 5869 5867 5866 5865 5864 5863 5861 5859 5858 5856 5854 5852 5850 5848 5846 5844 5841 5839 5836 5834 5832 5830 5828 5827 5825 5825 5824 5824 5823 5823 5824 5825
5868 5869 5871 5870 5870 5871 5872 5872 5872 5873 5872 5872 5871 5871 5871 5870 5869 5868 5867 5865 5864 5862 5860 5858 5856 5854 5852 5849 5847 5844 5841 5839 5836 5833 5830 5827 5824 5822 5820 5818 5816 5815 5814 5813 5813 5812 5812 5812 5813
5871 5872 5872 5871 5871 5872 5872 5873 5873 5873 5872 5872 5871 5871 5869 5869 5868 5867 5865 5864 5862 5860 5857 5855 5852 5849 5846 5843 5840 5836 5833 5830 5826 5823 5820 5816 5813 5810 5807 5805 5803 5802 5801 5800 5800 5800 5800 5801 5801
5872 5873 5872 5871 5872 5873 5873 5873 5873 5873 5872 5872 5871 5869 5868 5867 5866 5865 5863 5861 5859 5856 5853 5850 5846 5842 5838 5835 5831 5827 5823 5819 5815 5811 5807 5803 5799 5796 5793 5790 5788 5786 5785 5784 5784 5784 5785 5787 5788
5874 5874 5874 5874 5874 5875 5875 5875 5874 5874 5873 5871 5870 5869 5867 5866 5864 5862 5860 5858 5854 5851 5847 5843 5839 5835 5830 5826 5821 5817 5813 5808 5802 5797 5792 5787 5783 5779 5775 5772 5769 5767 5766 5765 5765 5766 5767 5769 5771
5877 5877 5876 5876 5877 5877 5877 5876 5875 5874 5872 5871 5869 5868 5866 5864 5862 5859 5857 5853 5849 5845 5841 5837 5832 5828 5823 5817 5812 5806 5801 5795 5789 5783 5777 5771 5765 5760 5755 5751 5748 5746 5744 5743 5743 5744 5746 5749 5751
5880 5880 5878 5878 5878 5878 5877 5876 5874 5873 5872 5870 5869 5867 5864 5862 5859 5856 5853 5849 5844 5840 5835 5830 5825 5819 5813 5807 5801 5795 5788 5782 5775 5768 5761 5754 5747 5740 5734 5729 5725 5722 5719 5718 5718 5719 5722 5725 5728
5883 5883 5880 5880 5879 5878 5877 5875 5874 5872 5871 5869 5867 5865 5862 5859 5856 5852 5848 5844 5839 5834 5828 5822 5816 5810 5804 5798 5790 5783 5775 5768 5760 5752 5744 5735 5727 5719 5711 5704 5699 5694 5691 5690 5689 5691 5694 5698 5702
5884 5883 5882 5881 5880 5879 5877 5875 5873 5871 5869 5867 5865 5862 5859 5855 5852 5848 5844 5839 5834 5828 5821 5815 5809 5802 5795 5787 5779 5771 5762 5753 5744 5734 5724 5714 5704 5694 5686 5678 5671 5664 5660 5658 5658 5659 5662 5667 5673
5885 5884 5882 5881 5880 5878 5876 5874 5872 5870 5868 5865 5862 5859 5855 5852 5848 5843 5838 5833 5827 5820 5814 5807 5800 5793 5785 5776 5767 5758 5748 5737 5726 5715 5703 5691 5679 5667 5657 5648 5640 5634 5628 5625 5623 5624 5627 5632 5639
5885 5883 5882 5880 5879 5877 5875 5873 5871 5868 5866 5863 5859 5855 5851 5847 5843 5837 5832 5826 5820 5813 5806 5799 5790 5782 5773 5763 5753 5741 5729 5717 5704 5691 5678 5666 5653 5640 5628 5618 5610 5603 5598 5594 5591 5591 5593 5597 5603
5885 5883 5881 5879 5877 5875 5873 5871 5868 5865 5862 5859 5855 5851 5847 5842 5838 5832 5827 5821 5814 5806 5798 5789 5780 5770 5759 5747 5735 5722 5708 5694 5680 5666 5651 5637 5625 5613 5601 5591 5582 5575 5569 5565 5563 5562 5562 5564 5569
5883 5881 5879 5876 5875 5873 5871 5868 5866 5863 5859 5856 5852 5847 5843 5838 5833 5828 5821 5814 5806 5797 5788 5778 5768 5756 5744 5731 5717 5702 5688 5672 5657 5641 5626 5611 5598 5586 5575 5566 5557 5550 5543 5538 5535 5534 5535 5536 5539
5881 5879 5877 5874 5872 5870 5869 5866 5863 5860 5856 5852 5848 5843 5838 5833 5827 5821 5814 5805 5797 5788 5778 5767 5755 5742 5728 5714 5698 5683 5667 5651 5635 5619 5604 5589 5576 5564 5553 5543 5535 5527 5521 5515 5511 5509 5508 5510 5513
5879 5877 5874 5872 5869 5867 5867 5864 5861 5857 5853 5849 5844 5840 5834 5828 5821 5814 5806 5797 5788 5778 5767 5755 5742 5728 5713 5697 5681 5664 5647 5630 5613 5597 5583 5569 5556 5544 5533 5524 5515 5508 5502 5496 5492 5488 5486 5486 5487
5877 5874 5872 5870 5867 5865 5863 5861 5858 5854 5849 5845 5841 5835 5829 5822 5815 5807 5798 5789 5779 5768 5756 5743 5729 5714 5698 5681 5664 5646 5627 5609 5593 5577 5563 5550 5537 5525 5515 5506 5498 5492 5486 5480 5475 5472 5468 5466 5465
5875 5872 5870 5867 5865 5863 5860 5858 5855 5850 5846 5841 5836 5830 5823 5816 5808 5800 5790 5780 5769 5758 5745 5731 5716 5700 5684 5667 5649 5630 5610 5592 5575 5560 5545 5532 5519 5508 5498 5490 5483 5476 5470 5465 5460 5456 5452 5448 5447
5873 5871 5869 5866 5863 5861 5859 5855 5851 5846 5842 5837 5832 5825 5818 5810 5801 5792 5782 5771 5760 5747 5733 5719 5703 5687 5671 5654 5636 5618 5599 5580 5563 5545 5529 5515 5502 5491 5482 5474 5466 5459 5453 5448 5442 5438 5436 5432 5429
5872 5870 5867 5865 5862 5859 5856 5852 5847 5843 5838 5833 5827 5819 5812 5803 5794 5784 5774 5763 5750 5737 5722 5707 5691 5675 5657 5639 5620 5601 5583 5565 5548 5531 5514 5499 5486 5474 5465 5457 5449 5441 5434 5428 5422 5418 5416 5415 5411
5872 5869 5866 5863 5860 5856 5854 5850 5844 5839 5833 5827 5821 5813 5805 5796 5786 5777 5766 5754 5741 5727 5711 5696 5679 5662 5643 5624 5605 5587 5570 5553 5536 5520 5503 5487 5473 5460 5449 5439 5429 5420 5412 5405 5399 5395 5392 5393 5393
5871 5868 5864 5861 5857 5853 5849 5846 5840 5834 5827 5821 5814 5806 5798 5789 5779 5769 5757 5745 5731 5716 5700 5684 5667 5648 5629 5609 5590 5573 5556 5540 5522 5505 5489 5473 5459 5445 5432 5420 5406 5395 5384 5376 5371 5368 5366 5368 5372
5869 5866 5862 5858 5854 5850 5845 5840 5836 5829 5821 5814 5807 5799 5791 5781 5771 5761 5749 5736 5721 5706 5690 5673 5654 5635 5616 5596 5578 5560 5543 5525 5508 5491 5476 5461 5446 5431 5414 5398 5382 5366 5353 5343 5338 5337 5337 5341 5346
5867 5864 5861 5856 5852 5847 5841 5835 5829 5822 5816 5809 5801 5793 5783 5774 5764 5753 5741 5727 5712 5697 5680 5662 5643 5624 5605 5585 5567 5549 5532 5514 5497 5480 5465 5449 5434 5416 5395 5375 5355 5336 5321 5310 5304 5303 5307 5313 5321
5865 5862 5858 5853 5848 5843 5836 5830 5825 5818 5811 5803 5795 5786 5777 5768 5757 5746 5733 5719 5704 5687 5670 5652 5634 5615 5595 5576 5557 5538 5520 5502 5484 5467 5451 5435 5418 5398 5376 5353 5332 5313 5296 5285 5278 5276 5280 5288 5298
5863 5859 5854 5849 5844 5840 5833 5827 5822 5814 5806 5797 5789 5781 5771 5761 5751 5739 5726 5711 5696 5679 5661 5644 5625 5606 5587 5567 5548 5529 5511 5492 5474 5456 5438 5420 5401 5379 5356 5334 5314 5297 5282 5270 5262 5259 5263 5270 5281
5862 5857 5852 5846 5841 5837 5830 5823 5817 5809 5801 5793 5784 5775 5765 5755 5744 5732 5719 5704 5688 5671 5653 5636 5617 5598 5578 5559 5540 5522 5504 5485 5467 5449 5430 5410 5388 5365 5343 5323 5306 5292 5278 5266 5258 5254 5256 5262 5271
5861 5856 5850 5843 5836 5831 5827 5819 5813 5805 5797 5789 5779 5769 5759 5749 5738 5725 5712 5696 5680 5663 5646 5628 5609 5589 5570 5551 5533 5515 5497 5479 5461 5443 5424 5403 5381 5358 5337 5319 5304 5292 5280 5269 5262 5258 5258 5262 5268
5860 5855 5849 5843 5836 5829 5823 5820 5811 5802 5793 5784 5774 5764 5754 5743 5731 5719 5704 5689 5672 5656 5639 5621 5602 5583 5564 5545 5527 5510 5493 5475 5456 5438 5419 5398 5377 5355 5334 5317 5305 5295 5285 5277 5271 5267 5265 5267 5270
5857 5853 5848 5843 5837 5829 5823 5819 5808 5799 5789 5779 5770 5759 5748 5737 5725 5712 5698 5682 5666 5650 5633 5615 5596 5577 5559 5541 5523 5506 5489 5472 5454 5436 5417 5396 5375 5354 5334 5318 5307 5299 5291 5284 5279 5276 5273 5272 5272